Temperature
16 17 17 16 16 16 15 15 15 14 13 13 13 13 13 13 13 13 13 12 12 12 12 12 11 11 11 10 10 10 9 9 9 9 9 9 9 9 9 9 9 9 9
16 16 16 16 16 16 16 15 15 14 14 14 14 14 14 13 13 13 12 12 12 12 12 12 12 11 11 10 10 10 9 9 9 9 9 9 9 9 9 9 9 9 9
16 16 16 16 16 16 16 16 15 15 15 15 14 13 13 12 12 12 12 12 12 12 12 12 12 11 11 11 10 10 10 10 9 9 9 9 9 9 9 9 9 9 9
16 16 17 17 17 17 17 17 16 16 15 15 14 13 13 13 14 14 13 13 12 12 12 12 12 11 11 11 11 10 10 10 10 9 9 9 10 9 9 9 9 9 9
15 16 17 17 17 17 17 17 17 16 16 15 14 14 14 14 14 14 13 13 13 12 12 12 11 11 11 11 11 10 10 10 10 10 9 9 9 9 9 9 9 9 9
15 16 16 17 17 17 17 17 16 16 16 15 15 15 15 14 14 14 13 13 13 12 12 12 11 11 11 11 11 10 10 10 10 9 9 9 9 9 9 9 9 9 9
15 15 16 16 17 17 17 16 16 16 16 15 15 15 15 15 15 15 14 14 13 13 13 12 12 11 11 11 11 10 10 10 10 9 9 9 9 9 9 9 9 9 9
15 15 16 16 16 17 17 16 16 16 16 15 15 15 15 15 15 15 15 15 15 15 14 13 12 12 11 11 10 10 10 10 9 9 9 9 9 9 9 9 9 8 8
14 15 16 16 16 16 17 16 16 16 16 16 16 15 15 15 15 15 15 15 15 14 14 13 12 12 11 11 10 10 10 10 9 9 9 9 9 9 9 8 8 8 7
13 14 15 16 16 16 16 16 16 16 16 16 15 15 15 15 15 14 14 14 14 14 13 13 12 12 11 11 10 10 10 10 9 9 9 9 9 9 9 8 8 8 7
13 14 15 16 16 16 16 16 16 16 16 16 15 15 15 15 14 14 14 14 14 13 13 13 12 11 11 11 10 10 10 10 9 9 9 9 9 9 8 8 8 8 7
12 13 14 15 16 16 16 16 16 16 16 16 15 15 15 14 14 14 14 13 13 13 13 12 12 11 11 11 10 10 10 10 9 9 9 9 9 9 8 8 8 7 7
11 12 13 14 15 15 16 16 15 16 16 15 15 15 14 14 14 14 13 13 13 12 12 12 12 11 11 11 10 10 10 10 10 9 9 9 9 8 8 8 7 7 7
10 11 12 14 14 15 15 15 15 15 15 15 15 14 14 14 14 14 13 13 12 12 12 12 12 11 11 11 10 10 10 9 9 9 9 9 8 8 8 7 7 7 6
8 9 11 12 13 14 15 15 15 15 15 15 14 14 14 14 13 13 13 12 12 12 12 11 11 11 10 10 10 10 9 9 9 9 9 8 8 8 7 7 7 6 6
7 8 9 11 12 13 14 14 14 14 14 14 14 14 14 13 13 13 12 12 12 12 11 11 11 11 10 10 10 10 9 9 9 9 8 8 8 7 7 7 6 6 5
6 7 8 10 11 12 13 13 14 14 13 14 14 14 13 13 12 12 12 12 12 11 11 11 11 10 10 10 10 9 9 9 9 8 8 8 7 7 7 6 6 5 5
5 6 8 9 11 12 12 13 13 13 13 13 13 13 12 12 12 12 12 12 11 11 11 11 10 10 10 10 9 9 9 9 8 8 8 7 7 7 6 6 5 5 4
5 6 7 9 10 11 12 12 12 12 12 12 13 12 12 12 12 11 11 11 11 11 11 10 10 10 10 9 9 9 9 8 8 8 7 7 6 6 6 5 5 4 3
5 6 7 8 10 10 11 11 11 11 12 12 12 12 12 11 11 11 11 11 11 11 10 10 10 10 9 9 9 8 8 8 8 7 7 6 6 5 5 4 4 3 3
5 6 7 8 9 10 10 10 11 11 11 11 11 11 11 11 11 11 10 10 10 10 10 10 9 9 9 9 8 8 8 8 7 7 6 6 5 5 4 4 3 3 2
5 5 6 7 8 9 10 10 10 10 10 10 11 11 10 10 10 10 10 10 10 9 9 9 9 8 8 8 8 8 7 7 7 6 6 5 5 4 4 3 2 2 1
4 5 6 7 7 8 9 9 10 10 10 10 10 10 10 9 9 9 9 9 9 9 9 9 8 8 8 7 7 7 7 6 6 6 5 4 4 3 3 2 2 1 1
4 4 5 6 7 7 8 9 9 9 10 9 9 9 9 9 9 9 9 9 9 8 8 8 8 8 7 7 7 6 6 6 5 5 4 4 3 3 2 2 1 0 -0
4 4 5 5 6 7 8 8 9 9 9 9 9 9 9 8 8 8 8 8 8 9 9 8 8 8 8 7 7 6 6 5 5 4 4 3 3 2 2 1 0 -0 -1
3 4 4 5 6 6 7 7 8 8 9 8 8 8 8 8 8 8 7 7 8 8 8 8 8 7 7 7 6 5 5 4 4 4 3 3 2 2 1 0 -0 -1 -2
Wind_Speed
16 15 17 19 19 20 21 22 21 21 19 17 16 15 15 13 12 11 15 18 18 19 14 8 9 9 9 8 8 5 5 4 4 4 2 3 2 1 2 3 4 6 8
14 15 15 18 21 23 23 24 24 24 23 18 16 13 12 10 10 9 12 17 18 18 15 11 10 9 8 9 8 6 5 3 4 4 3 0 3 3 2 2 4 4 6
17 16 16 18 20 23 25 24 25 24 24 19 13 10 8 7 8 11 13 13 17 18 15 14 11 10 10 10 9 9 8 6 4 3 5 4 4 2 2 3 3 4 3
16 15 16 17 20 23 23 25 26 25 25 21 19 20 17 15 14 14 12 12 15 16 16 15 13 12 10 10 11 9 6 8 5 3 2 3 4 3 1 3 2 3 5
15 15 15 18 19 21 22 23 24 25 24 23 23 22 18 14 9 9 12 13 12 13 15 15 13 13 11 12 11 10 8 7 6 5 3 2 1 2 3 3 3 3 4
14 14 13 13 16 18 20 21 23 24 24 25 24 24 21 16 14 14 15 13 11 12 14 15 14 13 12 12 11 12 11 9 7 6 5 4 4 4 4 4 3 4 4
12 13 12 13 15 16 19 20 23 24 24 25 25 25 24 22 21 18 18 15 12 12 16 15 15 13 12 12 11 12 11 11 10 9 6 5 5 4 4 4 3 3 3
11 12 13 14 16 18 19 21 23 23 24 25 25 24 22 19 17 17 15 17 15 15 14 15 14 14 13 13 12 11 11 11 11 11 9 6 6 5 5 5 4 2 2
12 13 13 14 15 18 20 22 23 22 23 25 24 22 21 20 18 17 15 15 12 11 13 14 14 13 14 14 13 11 11 11 11 10 10 7 6 5 5 4 5 5 3
11 12 12 14 14 16 18 20 22 23 22 23 23 19 21 20 18 16 17 16 14 13 14 15 14 13 13 14 13 10 10 12 11 8 10 9 6 5 5 4 4 4 5
9 10 11 12 13 13 16 18 19 19 20 21 21 20 19 19 17 17 18 17 15 15 15 16 15 15 14 14 13 12 12 13 11 10 10 10 7 6 5 4 4 4 4
8 8 9 9 11 13 14 17 18 18 19 20 19 19 18 18 18 17 17 17 16 16 15 15 15 15 15 14 14 14 13 13 13 11 10 10 7 7 5 5 5 4 4
7 5 5 7 10 12 14 16 17 17 16 17 18 17 17 18 19 18 16 16 16 15 15 15 16 16 15 14 14 13 12 12 11 11 11 10 8 8 6 5 5 4 3
7 5 4 5 8 10 13 14 15 15 14 15 17 17 18 18 18 17 16 16 16 16 16 15 15 14 14 13 12 11 11 10 9 9 9 9 10 9 7 6 5 4 3
10 7 4 4 5 7 9 11 13 13 14 14 16 17 16 14 14 15 15 15 15 15 14 13 13 12 12 12 12 11 11 10 9 8 7 7 8 9 7 6 5 5 4
12 9 7 4 4 5 7 9 10 11 13 14 14 14 14 14 14 14 14 14 14 14 13 14 13 12 10 14 16 14 11 10 10 8 6 6 6 7 8 7 8 7 5
14 12 8 6 4 5 6 9 9 10 12 12 12 13 15 15 14 13 13 14 14 13 13 13 13 12 13 16 17 16 11 10 9 8 7 5 5 7 6 6 6 5 4
14 12 10 7 4 3 4 6 8 10 11 11 12 13 14 14 13 14 14 13 12 13 12 12 13 11 12 17 17 16 11 8 8 8 8 8 7 7 8 7 5 3 2
13 11 9 6 3 2 3 6 8 10 11 12 12 13 14 14 14 14 13 11 12 11 11 11 12 12 12 16 18 16 9 8 7 7 8 8 8 10 12 9 7 4 2
12 10 8 5 1 1 4 7 8 10 11 11 12 12 13 14 14 14 12 10 11 11 11 10 10 12 11 16 18 17 9 9 8 6 7 9 10 11 12 8 7 6 3
12 10 7 5 2 1 4 6 7 8 8 9 11 11 12 12 13 11 11 12 12 12 11 11 9 9 11 15 18 17 10 10 9 7 6 6 11 12 11 9 6 6 6
12 9 7 6 4 0 4 6 6 6 8 10 11 11 11 11 11 13 12 13 13 13 12 11 9 7 9 12 15 17 15 13 10 8 6 7 13 12 11 8 8 10 9
11 9 7 6 4 2 2 6 6 8 10 11 11 12 12 11 12 14 14 13 12 11 11 10 10 8 7 9 16 17 18 16 10 9 12 13 14 12 9 10 11 9 5
9 8 7 5 5 3 0 4 7 9 11 11 12 12 12 11 11 10 11 12 12 12 11 11 11 10 8 8 9 10 11 15 12 10 13 15 15 11 10 9 6 4 4
8 7 6 5 4 3 1 4 8 10 11 11 11 11 11 11 10 9 8 10 9 12 14 12 12 13 11 11 16 14 11 10 11 12 8 6 6 6 5 5 5 4 3
8 7 6 5 4 3 1 4 8 10 11 11 11 10 10 10 10 11 9 11 10 14 15 15 14 11 14 20 20 19 20 20 20 12 8 7 6 6 5 5 4 3 3
Wind_Direction
222 216 206 197 192 188 185 183 182 180 177 179 181 181 185 185 184 185 183 182 181 179 177 176 174 175 175 174 161 147 148 143 133 101 62 5 0 271 210 189 189 199 203
226 218 210 201 194 191 189 186 185 182 183 186 186 184 179 180 181 179 183 184 183 181 182 176 179 178 173 170 168 151 147 156 155 133 118 32 323 302 261 226 212 211 206
223 219 209 203 197 194 191 189 188 186 187 183 175 165 156 156 173 185 189 189 186 185 184 182 179 180 180 182 179 168 161 167 185 163 150 160 214 256 295 253 233 220 217
224 218 209 200 199 197 192 191 189 188 187 182 179 178 181 187 191 188 188 185 187 186 185 183 182 183 184 183 183 177 167 161 177 193 182 161 154 161 244 296 268 239 229
224 220 214 204 201 198 193 191 189 190 188 185 184 185 190 193 177 174 178 184 188 188 186 185 185 187 188 187 184 179 177 173 172 174 166 151 130 140 160 236 276 278 249
222 222 217 206 201 197 193 191 189 190 189 188 188 189 191 184 175 180 186 189 190 191 191 188 190 191 190 189 188 186 185 185 179 180 172 165 168 185 175 202 231 248 264
218 218 213 206 201 196 194 192 191 191 189 190 192 194 193 189 188 189 190 190 191 196 197 193 194 193 191 189 185 187 191 189 188 190 193 191 190 168 166 173 201 232 269
221 217 214 208 203 197 194 193 193 193 191 191 195 196 195 193 196 193 192 194 198 199 192 194 195 193 190 189 188 191 193 193 197 198 195 199 203 183 174 171 167 199 274
229 222 216 209 204 199 196 194 195 194 193 194 194 195 196 195 195 193 191 195 196 191 187 192 194 193 191 190 189 196 196 194 200 202 201 203 205 195 190 175 169 175 218
236 230 220 212 206 201 197 195 196 196 193 194 195 197 196 197 195 191 193 195 193 187 187 191 194 192 191 191 192 194 194 196 199 197 199 207 205 199 192 187 185 184 192
247 235 225 212 203 198 195 195 196 196 194 194 194 194 196 195 193 194 196 194 191 188 190 192 193 194 194 193 194 197 192 198 198 195 199 207 199 197 197 188 186 193 186
266 243 225 208 196 194 194 194 194 196 196 194 193 194 193 192 193 195 194 191 190 191 190 189 192 195 195 195 196 197 195 197 198 197 197 205 195 196 194 190 195 200 193
300 270 228 208 200 196 194 194 193 195 195 191 190 190 190 192 193 194 191 189 189 189 188 188 192 193 193 194 196 195 194 195 197 196 198 200 190 199 196 192 196 196 185
326 306 258 224 205 200 196 192 192 191 189 188 188 189 191 193 192 189 187 187 186 187 189 190 191 189 189 190 190 188 188 189 191 192 194 194 193 197 192 192 194 180 173
330 318 289 252 220 201 194 191 189 186 184 185 188 190 189 187 184 183 183 183 183 185 184 182 182 182 184 187 184 182 182 183 183 183 185 187 184 185 185 184 183 172 175
326 316 308 285 235 210 197 186 184 182 180 183 186 181 178 178 179 179 178 177 178 177 175 177 178 180 185 181 177 177 177 177 177 176 171 167 170 168 165 164 163 163 171
325 318 309 292 253 221 198 186 181 174 176 178 175 172 174 175 176 172 171 172 173 171 172 174 175 178 178 171 170 169 171 171 174 169 162 153 152 147 145 139 131 135 142
324 319 313 301 278 232 199 178 169 169 170 170 170 169 168 170 168 167 170 169 167 168 170 171 170 167 168 163 161 157 159 156 159 160 158 154 151 150 143 134 127 118 114
317 311 306 297 274 211 177 159 164 164 164 168 169 168 165 163 163 166 166 162 159 159 163 164 161 160 161 159 155 150 149 145 142 142 144 148 149 148 142 137 134 120 92
320 320 321 325 306 199 156 154 162 164 169 169 166 163 161 161 162 160 155 151 150 150 149 148 153 155 156 154 150 144 145 141 136 129 135 142 143 145 143 145 146 147 145
323 328 330 338 313 199 145 152 158 167 163 153 152 153 154 153 151 146 144 144 141 140 140 137 138 144 148 150 148 147 149 148 142 140 139 140 139 138 140 138 145 145 134
327 331 335 338 330 271 153 150 154 145 138 142 144 143 143 143 143 142 142 142 141 139 137 132 129 127 137 143 148 147 144 142 142 143 139 134 134 133 132 127 121 118 113
324 327 330 334 336 325 164 157 153 141 138 139 141 140 138 141 145 146 146 145 144 143 143 141 138 131 128 136 139 140 139 135 130 131 132 129 127 122 119 117 117 115 110
322 325 326 330 331 324 262 157 147 142 139 141 142 141 140 140 142 144 148 150 151 148 146 146 143 138 135 135 136 137 132 127 120 119 120 117 113 106 105 106 101 97 115
315 319 314 306 308 313 251 150 145 141 139 141 141 139 140 142 140 135 139 147 154 157 155 155 152 150 152 155 148 144 141 138 131 123 111 107 111 104 99 97 95 92 96
309 309 305 298 304 308 214 154 148 144 142 145 144 143 142 140 136 129 108 91 118 130 135 142 142 141 142 144 142 139 137 135 134 125 128 129 129 130 130 127 115 104 107
Height
1411 1415 1419 1423 1427 1432 1436 1441 1446 1452 1457 1462 1467 1471 1475 1480 1485 1489 1493 1497 1501 1505 1508 1512 1515 1518 1521 1523 1526 1529 1531 1533 1535 1537 1538 1539 1540 1540 1541 1541 1541 1542 1542
1404 1408 1412 1416 1420 1424 1429 1435 1440 1445 1450 1455 1460 1465 1471 1476 1480 1485 1490 1494 1498 1501 1505 1508 1511 1515 1518 1521 1524 1526 1529 1531 1533 1535 1536 1538 1539 1538 1539 1539 1539 1540 1540
1396 1400 1405 1409 1413 1417 1422 1427 1433 1438 1444 1450 1456 1463 1469 1474 1478 1481 1485 1489 1493 1497 1501 1504 1508 1511 1515 1517 1520 1523 1526 1528 1530 1533 1534 1535 1535 1536 1536 1536 1537 1538 1538
1389 1393 1397 1400 1405 1409 1414 1420 1426 1431 1437 1444 1449 1454 1458 1462 1466 1472 1478 1484 1488 1493 1497 1500 1504 1508 1511 1514 1517 1520 1523 1526 1527 1530 1531 1533 1533 1534 1534 1535 1535 1535 1535
1381 1384 1388 1392 1397 1403 1408 1413 1419 1425 1431 1437 1442 1447 1452 1457 1463 1469 1474 1479 1484 1488 1492 1496 1500 1503 1507 1510 1514 1516 1519 1522 1524 1526 1528 1529 1531 1531 1532 1532 1532 1533 1533
1374 1377 1381 1385 1390 1396 1401 1406 1411 1417 1424 1429 1435 1440 1445 1451 1457 1462 1468 1473 1478 1483 1487 1491 1494 1498 1502 1505 1509 1512 1516 1518 1521 1523 1525 1526 1527 1528 1529 1529 1529 1529 1530
1366 1370 1374 1378 1382 1387 1393 1398 1404 1409 1416 1422 1428 1433 1439 1445 1450 1455 1461 1466 1471 1475 1479 1484 1488 1492 1496 1501 1505 1508 1511 1514 1517 1519 1522 1523 1525 1526 1527 1527 1526 1526 1526
1360 1363 1366 1371 1375 1380 1385 1391 1396 1402 1408 1414 1421 1427 1433 1439 1444 1450 1455 1460 1464 1469 1474 1479 1483 1487 1492 1496 1500 1504 1507 1510 1513 1515 1518 1520 1521 1522 1523 1524 1524 1523 1523
1353 1356 1359 1364 1368 1373 1377 1383 1389 1395 1401 1407 1414 1420 1426 1432 1437 1443 1449 1455 1460 1465 1470 1474 1478 1483 1487 1491 1495 1499 1502 1505 1508 1511 1514 1515 1517 1518 1519 1520 1520 1521 1519
1347 1349 1352 1356 1360 1365 1371 1376 1382 1387 1393 1400 1407 1413 1419 1425 1431 1437 1443 1448 1454 1460 1465 1469 1474 1478 1482 1486 1490 1494 1497 1501 1503 1506 1509 1511 1512 1514 1515 1515 1516 1516 1516
1341 1342 1345 1349 1354 1359 1364 1370 1375 1381 1387 1393 1400 1407 1413 1419 1425 1431 1436 1443 1448 1454 1459 1464 1469 1473 1477 1481 1485 1488 1492 1495 1498 1501 1503 1506 1508 1509 1510 1511 1511 1511 1511
1336 1337 1339 1343 1347 1352 1357 1362 1368 1374 1380 1386 1393 1400 1407 1413 1419 1425 1430 1437 1443 1448 1454 1459 1463 1468 1472 1476 1480 1483 1486 1490 1493 1495 1498 1500 1503 1504 1505 1506 1506 1506 1506
1332 1332 1334 1337 1341 1345 1350 1356 1362 1368 1374 1381 1387 1393 1400 1406 1412 1418 1425 1431 1437 1443 1448 1453 1457 1462 1466 1471 1475 1478 1482 1485 1488 1491 1493 1495 1498 1499 1500 1501 1501 1501 1501
1331 1330 1330 1332 1335 1339 1344 1349 1355 1362 1368 1374 1381 1387 1393 1399 1406 1413 1419 1425 1431 1437 1443 1447 1452 1457 1462 1466 1470 1473 1477 1480 1483 1486 1489 1491 1492 1494 1495 1496 1496 1497 1497
1331 1329 1328 1329 1331 1334 1339 1344 1349 1356 1362 1368 1374 1380 1387 1394 1401 1407 1414 1420 1426 1432 1437 1443 1447 1452 1457 1461 1465 1469 1472 1476 1479 1482 1484 1486 1488 1489 1491 1491 1492 1492 1492
1332 1329 1327 1326 1328 1330 1334 1339 1344 1350 1356 1362 1368 1375 1382 1389 1395 1402 1409 1415 1421 1427 1433 1438 1443 1447 1452 1456 1460 1464 1468 1472 1474 1477 1479 1482 1484 1485 1486 1487 1487 1488 1488
1334 1329 1326 1325 1326 1328 1331 1335 1340 1346 1352 1358 1364 1370 1377 1384 1390 1397 1404 1410 1416 1422 1428 1433 1438 1443 1448 1452 1457 1461 1464 1468 1470 1473 1475 1477 1479 1481 1482 1483 1483 1484 1483
1333 1328 1325 1324 1324 1326 1329 1333 1337 1343 1348 1354 1359 1366 1372 1379 1386 1392 1399 1405 1411 1417 1423 1428 1434 1439 1444 1449 1453 1457 1461 1464 1467 1469 1471 1474 1476 1477 1478 1479 1479 1479 1479
1332 1328 1325 1323 1323 1324 1327 1330 1334 1339 1344 1349 1355 1361 1368 1374 1381 1388 1394 1401 1407 1413 1419 1424 1430 1435 1440 1445 1449 1453 1457 1460 1463 1465 1468 1470 1472 1473 1474 1475 1476 1476 1476
1330 1326 1323 1321 1321 1323 1325 1328 1331 1336 1340 1346 1352 1358 1364 1371 1377 1383 1390 1397 1404 1410 1416 1421 1427 1432 1437 1441 1445 1450 1453 1456 1459 1462 1464 1467 1468 1470 1471 1472 1472 1472 1472
1328 1325 1322 1321 1321 1322 1324 1326 1329 1333 1338 1344 1350 1356 1362 1368 1374 1381 1387 1394 1400 1407 1413 1418 1424 1429 1434 1438 1442 1446 1450 1453 1456 1459 1461 1463 1465 1467 1468 1469 1469 1469 1469
1328 1325 1322 1320 1321 1322 1323 1325 1328 1333 1337 1343 1348 1354 1360 1366 1372 1378 1385 1391 1397 1403 1409 1415 1420 1426 1431 1435 1439 1443 1447 1450 1453 1456 1458 1460 1462 1464 1465 1466 1466 1466 1466
1327 1324 1322 1321 1321 1322 1323 1325 1328 1332 1337 1342 1347 1353 1359 1364 1370 1376 1382 1388 1394 1400 1406 1412 1417 1422 1428 1432 1437 1441 1445 1448 1451 1454 1456 1458 1460 1461 1462 1463 1464 1464 1463
1327 1324 1322 1321 1320 1321 1323 1325 1328 1331 1336 1340 1346 1351 1356 1362 1368 1374 1380 1385 1390 1396 1402 1408 1413 1419 1424 1429 1433 1438 1442 1445 1448 1451 1454 1456 1458 1459 1460 1461 1461 1461 1461
1325 1323 1322 1321 1320 1321 1322 1325 1327 1331 1335 1340 1345 1350 1355 1361 1366 1372 1378 1384 1390 1395 1400 1405 1411 1416 1421 1426 1432 1435 1440 1443 1446 1449 1451 1453 1455 1457 1458 1458 1459 1459 1458
1323 1322 1321 1320 1319 1319 1320 1323 1327 1331 1334 1338 1343 1348 1353 1359 1364 1370 1376 1384 1390 1396 1401 1407 1411 1416 1421 1425 1430 1434 1438 1441 1444 1447 1449 1451 1453 1454 1455 1456 1456 1457 1456